Weather in Mao

Chad     14°07′04″N   15°18′38″E
В апреле 2022 года жителям России запретили посещать сайт meteo.paraplan.net по решению Генеральной прокуратуры. Аудитория сайта уменьшилась в 10 раз. Владельцы сайта не видят смысла в поддержке погодного сервера в таких условиях. Сайт будет закрыт в октябре.
temp.,
°C
wind,
m/s
gust,
m/s
humid.,
%
clouds,
%
prec.,
mm/h
press.,
hPa
HPBL,
m
3 october, mon
mon301:00+31wsw35302 0.0 100782
04:00+28sw37575 0.0 1007225
07:00+29wsw46550 0.0 1009232
10:00+34w66340 0.0 1010963
13:00+38nw44183 0.0 10072686
16:00+38n121611 0.0 10053939
19:00+34ssw67320 0.0 1006278
22:00+33wsw47340 0.0 1007167
4 october, tue
tue401:00+31wsw34300 0.0 100669
04:00+30ssw45260 0.0 100685
07:00+29sw475524 0.0 1008244
10:00+34sw664082 0.0 10091015
13:00+36ssw43325 0.0 10072099
16:00+36ssw643272 0.0 10051300
19:00+33ssw673798 0.0 1007488
22:00+29se694380 0.1 1010365
5 october, wed
wed501:00+28ssw495265 0.1 1009271
04:00+27sse24555 0.0 1009173
07:00+27sw3461100 0.0 1011246
10:00+30wsw2351100 0.0 1011561
13:00+34e113528 0.0 10091493
16:00+35nne14295 0.0 10072578
19:00+35w23305 0.0 1008114
22:00+32wsw34423 0.0 1010141
6 october, thu
thu601:00+30wsw34455 0.0 1009110
04:00+29wsw345078 0.0 100996
07:00+29w345079 0.0 1010175
10:00+35n45285 0.0 10101124
13:00+39ene68115 0.0 10073344
16:00+39ne88105 0.0 10063918
19:00+34ssw44303 0.0 1008134
22:00+32sw344248 0.0 1009107
7 october, fri
fri701:00+31sw2240100 0.0 100830
04:00+30sw344056 0.0 100859
07:00+29wsw2244100 0.0 101095
10:00+34sw213243 0.0 10111031
13:00+37se2518100 0.0 10082532
16:00+38ene3414100 0.0 10062051
19:00+32sw6636100 0.0 1008265
22:00+31wsw3537100 0.0 1009155